カタログに戻る

STARLINK-33794

運用中通信VLEO
NORAD 63820·PAYLOAD·🇺🇸 United States

打ち上げ May 4, 2025 から Cape Canaveral Space Force Station

Loading…

次のパス (今後24時間)

TLE

最新Source: CelesTrak SupGP

元期: Sep 14, 2026, 20:50 UTC

1 63820C 25092S   26257.86854167  .00005888  00000+0  21327-3 0  2577
2 63820  43.0027 184.3510 0001476 273.7719 132.8605 15.27574275    14

AllMySatでSTARLINK-33794をリアルタイム追跡

Download on the App Store